| time (UTC) | temp F | wind direction | speed MPH | gust MPH | rain 1hr in | rain 24hr in | rain mn in | humidity % | barometer mb |
| 20260903233301 | 0 | 0.0 | 0.0 | 0.00 | 0.00 | 0.00 | |||
| 20260903232957 | 64 | 160 | 6.0 | 9.0 | 0.00 | 0.00 | 0.02 | 56 | 1009.5 |
| 20260903232458 | 64 | 198 | 4.0 | 9.0 | 0.00 | 0.00 | 0.02 | 56 | 1009.4 |
| 20260903231957 | 63 | 170 | 5.0 | 8.0 | 0.00 | 0.00 | 0.02 | 58 | 1009.4 |
| 20260903231802 | 0 | 0.0 | 0.0 | 0.00 | 0.00 | 0.00 | |||
| 20260903231458 | 63 | 182 | 5.0 | 8.0 | 0.00 | 0.00 | 0.02 | 58 | 1009.4 |
| 20260903231303 | 0 | 0.0 | 0.0 | 0.00 | 0.00 | 0.00 | |||
| 20260903230957 | 63 | 160 | 4.0 | 7.0 | 0.00 | 0.00 | 0.02 | 59 | 1009.4 |
| 20260903230802 | 0 | 0.0 | 0.0 | 0.00 | 0.00 | 0.00 | |||
| 20260903230457 | 64 | 190 | 7.0 | 11.0 | 0.00 | 0.00 | 0.02 | 57 | 1009.5 |
| 20260903230302 | 0 | 0.0 | 0.0 | 0.00 | 0.00 | 0.00 | |||
| 20260903225957 | 64 | 176 | 5.0 | 7.0 | 0.00 | 0.00 | 0.02 | 57 | 1009.5 |
| 20260903225803 | 0 | 0.0 | 0.0 | 0.00 | 0.00 | 0.00 | |||
| 20260903225458 | 64 | 182 | 6.0 | 10.0 | 0.00 | 0.00 | 0.02 | 57 | 1009.5 |
| 20260903225259 | 0 | 0.0 | 0.0 | 0.00 | 0.00 | 0.00 | |||
| 20260903224957 | 64 | 179 | 5.0 | 8.0 | 0.00 | 0.00 | 0.02 | 58 | 1009.7 |
| 20260903224759 | 0 | 0.0 | 0.0 | 0.00 | 0.00 | 0.00 | |||
| 20260903224457 | 64 | 167 | 7.0 | 10.0 | 0.00 | 0.00 | 0.02 | 59 | 1009.8 |
| 20260903224259 | 0 | 0.0 | 0.0 | 0.00 | 0.00 | 0.00 | |||
| 20260903223957 | 64 | 129 | 3.0 | 4.0 | 0.00 | 0.00 | 0.02 | 59 | 1009.7 |
| 20260903223800 | 0 | 0.0 | 0.0 | 0.00 | 0.00 | 0.00 | |||
| 20260903223458 | 64 | 158 | 4.0 | 7.0 | 0.00 | 0.00 | 0.02 | 59 | 1009.5 |
| 20260903223259 | 0 | 0.0 | 0.0 | 0.00 | 0.00 | 0.00 | |||
| 20260903222957 | 64 | 185 | 9.0 | 11.0 | 0.00 | 0.00 | 0.02 | 61 | 1009.8 |
| 20260903222800 | 0 | 0.0 | 0.0 | 0.00 | 0.00 | 0.00 | |||
| 20260903222457 | 65 | 179 | 8.0 | 12.0 | 0.00 | 0.00 | 0.02 | 59 | 1009.4 |
| 20260903222259 | 0 | 0.0 | 0.0 | 0.00 | 0.00 | 0.00 | |||
| 20260903221958 | 64 | 147 | 3.0 | 8.0 | 0.00 | 0.00 | 0.02 | 61 | 1009.5 |
| 20260903221800 | 0 | 0.0 | 0.0 | 0.00 | 0.00 | 0.00 | |||
| 20260903221457 | 65 | 174 | 4.0 | 7.0 | 0.00 | 0.00 | 0.02 | 60 | 1009.8 |
| 20260903221259 | 0 | 0.0 | 0.0 | 0.00 | 0.00 | 0.00 | |||
| 20260903220957 | 65 | 126 | 4.0 | 8.0 | 0.00 | 0.00 | 0.02 | 60 | 1009.5 |
| 20260903220800 | 0 | 0.0 | 0.0 | 0.00 | 0.00 | 0.00 | |||
| 20260903220457 | 64 | 234 | 2.0 | 4.0 | 0.00 | 0.00 | 0.02 | 61 | 1009.4 |
| 20260903220300 | 0 | 0.0 | 0.0 | 0.00 | 0.00 | 0.00 | |||
| 20260903215957 | 63 | 132 | 3.0 | 5.0 | 0.00 | 0.00 | 0.02 | 63 | 1009.8 |
| 20260903215800 | 0 | 0.0 | 0.0 | 0.00 | 0.00 | 0.00 | |||
| 20260903215458 | 62 | 151 | 3.0 | 6.0 | 0.00 | 0.00 | 0.02 | 63 | 1009.8 |
| 20260903215257 | 0 | 0.0 | 0.0 | 0.00 | 0.00 | 0.00 | |||
| 20260903214957 | 62 | 74 | 4.0 | 7.0 | 0.00 | 0.00 | 0.02 | 65 | 1009.9 |
| 20260903214758 | 0 | 0.0 | 0.0 | 0.00 | 0.00 | 0.00 | |||
| 20260903214457 | 62 | 126 | 2.0 | 4.0 | 0.00 | 0.00 | 0.02 | 65 | 1009.8 |
| 20260903214257 | 0 | 0.0 | 0.0 | 0.00 | 0.00 | 0.00 | |||
| 20260903213957 | 62 | 131 | 4.0 | 6.0 | 0.00 | 0.00 | 0.02 | 65 | 1009.8 |
| 20260903213757 | 0 | 0.0 | 0.0 | 0.00 | 0.00 | 0.00 | |||
| 20260903213457 | 62 | 141 | 4.0 | 6.0 | 0.00 | 0.00 | 0.02 | 66 | 1010.0 |
| 20260903213258 | 0 | 0.0 | 0.0 | 0.00 | 0.00 | 0.00 | |||
| 20260903212957 | 62 | 160 | 3.0 | 6.0 | 0.00 | 0.00 | 0.02 | 66 | 1010.0 |
| 20260903212457 | 61 | 164 | 5.0 | 8.0 | 0.00 | 0.00 | 0.02 | 65 | 1009.8 |
| 20260903212258 | 0 | 0.0 | 0.0 | 0.00 | 0.00 | 0.00 | |||
| 20260903211957 | 61 | 144 | 4.0 | 5.0 | 0.00 | 0.00 | 0.02 | 66 | 1009.9 |
| 20260903211757 | 0 | 0.0 | 0.0 | 0.00 | 0.00 | 0.00 | |||
| 20260903211457 | 60 | 118 | 4.0 | 7.0 | 0.00 | 0.00 | 0.02 | 67 | 1010.0 |
| 20260903211258 | 0 | 0.0 | 0.0 | 0.00 | 0.00 | 0.00 | |||
| 20260903210957 | 60 | 103 | 3.0 | 6.0 | 0.00 | 0.00 | 0.02 | 69 | 1010.0 |
| 20260903210759 | 0 | 0.0 | 0.0 | 0.00 | 0.00 | 0.00 | |||
| 20260903210458 | 60 | 150 | 2.0 | 4.0 | 0.00 | 0.00 | 0.02 | 69 | 1010.0 |
| 20260903210258 | 0 | 0.0 | 0.0 | 0.00 | 0.00 | 0.00 | |||
| 20260903205957 | 60 | 135 | 3.0 | 4.0 | 0.00 | 0.00 | 0.02 | 69 | 1010.0 |
| 20260903205756 | 0 | 0.0 | 0.0 | 0.00 | 0.00 | 0.00 | |||
| 20260903205457 | 60 | 117 | 3.0 | 5.0 | 0.00 | 0.00 | 0.02 | 69 | 1010.0 |
| 20260903205255 | 0 | 0.0 | 0.0 | 0.00 | 0.00 | 0.00 | |||
| 20260903204957 | 60 | 165 | 2.0 | 4.0 | 0.00 | 0.00 | 0.02 | 69 | 1010.0 |
| 20260903204755 | 0 | 0.0 | 0.0 | 0.00 | 0.00 | 0.00 | |||
| 20260903204458 | 60 | 133 | 2.0 | 4.0 | 0.00 | 0.00 | 0.02 | 70 | 1009.9 |
| 20260903204256 | 0 | 0.0 | 0.0 | 0.00 | 0.00 | 0.00 | |||
| 20260903203958 | 59 | 124 | 3.0 | 4.0 | 0.00 | 0.00 | 0.02 | 70 | 1009.9 |
| 20260903203457 | 59 | 119 | 3.0 | 4.0 | 0.00 | 0.00 | 0.02 | 70 | 1009.9 |
| 20260903203255 | 0 | 0.0 | 0.0 | 0.00 | 0.00 | 0.00 | |||
| 20260903202958 | 59 | 141 | 2.0 | 4.0 | 0.00 | 0.00 | 0.02 | 70 | 1009.9 |
| 20260903202756 | 0 | 0.0 | 0.0 | 0.00 | 0.00 | 0.00 | |||
| 20260903202457 | 59 | 155 | 4.0 | 6.0 | 0.00 | 0.00 | 0.02 | 70 | 1009.9 |
| 20260903202256 | 0 | 0.0 | 0.0 | 0.00 | 0.00 | 0.00 | |||
| 20260903201957 | 60 | 150 | 1.0 | 4.0 | 0.00 | 0.00 | 0.02 | 70 | 1009.9 |
| 20260903201756 | 0 | 0.0 | 0.0 | 0.00 | 0.00 | 0.00 | |||
| 20260903201457 | 60 | 154 | 2.0 | 3.0 | 0.00 | 0.00 | 0.02 | 70 | 1009.9 |
| 20260903201256 | 0 | 0.0 | 0.0 | 0.00 | 0.00 | 0.00 | |||
| 20260903200958 | 60 | 148 | 2.0 | 5.0 | 0.00 | 0.00 | 0.02 | 70 | 1009.8 |
| 20260903200756 | 0 | 0.0 | 0.0 | 0.00 | 0.00 | 0.00 | |||
| 20260903200457 | 59 | 125 | 2.0 | 4.0 | 0.00 | 0.00 | 0.02 | 69 | 1009.8 |
| 20260903200253 | 0 | 0.0 | 0.0 | 0.00 | 0.00 | 0.00 | |||
| 20260903195957 | 59 | 133 | 2.0 | 5.0 | 0.00 | 0.00 | 0.02 | 70 | 1009.8 |
| 20260903195754 | 0 | 0.0 | 0.0 | 0.00 | 0.00 | 0.00 | |||
| 20260903195457 | 60 | 139 | 4.0 | 9.0 | 0.00 | 0.00 | 0.02 | 70 | 1009.7 |
| 20260903195253 | 0 | 0.0 | 0.0 | 0.00 | 0.00 | 0.00 | |||
| 20260903194957 | 60 | 170 | 4.0 | 7.0 | 0.00 | 0.00 | 0.02 | 70 | 1009.7 |
| 20260903194754 | 0 | 0.0 | 0.0 | 0.00 | 0.00 | 0.00 | |||
| 20260903194458 | 60 | 150 | 3.0 | 4.0 | 0.00 | 0.00 | 0.02 | 70 | 1009.5 |
| 20260903194253 | 0 | 0.0 | 0.0 | 0.00 | 0.00 | 0.00 | |||
| 20260903193959 | 59 | 177 | 2.0 | 3.0 | 0.00 | 0.00 | 0.02 | 73 | 1009.5 |
| 20260903193754 | 0 | 0.0 | 0.0 | 0.00 | 0.00 | 0.00 | |||
| 20260903193457 | 59 | 117 | 5.0 | 7.0 | 0.00 | 0.00 | 0.02 | 70 | 1009.5 |
| 20260903193253 | 0 | 0.0 | 0.0 | 0.00 | 0.00 | 0.00 | |||
| 20260903192957 | 59 | 141 | 4.0 | 7.0 | 0.00 | 0.00 | 0.02 | 71 | 1009.5 |
| 20260903192754 | 0 | 0.0 | 0.0 | 0.00 | 0.00 | 0.00 | |||
| 20260903192457 | 59 | 134 | 4.0 | 6.0 | 0.00 | 0.00 | 0.02 | 72 | 1009.4 |
| 20260903192254 | 0 | 0.0 | 0.0 | 0.00 | 0.00 | 0.00 | |||
| 20260903191958 | 59 | 124 | 3.0 | 7.0 | 0.00 | 0.00 | 0.02 | 71 | 1009.3 |
| 20260903191457 | 60 | 92 | 4.0 | 6.0 | 0.00 | 0.00 | 0.02 | 71 | 1009.3 |
| 20260903191254 | 0 | 0.0 | 0.0 | 0.00 | 0.00 | 0.00 | |||
| 20260903190958 | 60 | 125 | 4.0 | 7.0 | 0.00 | 0.00 | 0.02 | 71 | 1009.3 |
| 20260903190457 | 60 | 116 | 4.0 | 8.0 | 0.00 | 0.00 | 0.02 | 71 | 1009.2 |
| 20260903185958 | 60 | 130 | 4.0 | 6.0 | 0.00 | 0.00 | 0.02 | 72 | 1009.2 |
| 20260903185752 | 0 | 0.0 | 0.0 | 0.00 | 0.00 | 0.00 | |||
| 20260903185504 | 60 | 110 | 3.0 | 5.0 | 0.00 | 0.00 | 0.02 | 71 | 1009.3 |
| 20260903185252 | 0 | 0.0 | 0.0 | 0.00 | 0.00 | 0.00 | |||
| 20260903184957 | 60 | 126 | 3.0 | 5.0 | 0.00 | 0.00 | 0.02 | 71 | 1009.3 |
| 20260903184757 | 0 | 0.0 | 0.0 | 0.00 | 0.00 | 0.00 | |||
| 20260903184457 | 60 | 152 | 5.0 | 7.0 | 0.00 | 0.00 | 0.02 | 70 | 1008.9 |
| 20260903183957 | 59 | 145 | 2.0 | 5.0 | 0.00 | 0.00 | 0.02 | 74 | 1009.1 |
| 20260903183756 | 0 | 0.0 | 0.0 | 0.00 | 0.00 | 0.00 | |||
| 20260903183457 | 60 | 149 | 4.0 | 6.0 | 0.00 | 0.00 | 0.02 | 74 | 1009.1 |
| 20260903183252 | 0 | 0.0 | 0.0 | 0.00 | 0.00 | 0.00 | |||
| 20260903182957 | 60 | 131 | 4.0 | 6.0 | 0.00 | 0.00 | 0.02 | 73 | 1009.2 |
| 20260903182752 | 0 | 0.0 | 0.0 | 0.00 | 0.00 | 0.00 | |||
| 20260903182458 | 60 | 161 | 5.0 | 6.0 | 0.00 | 0.00 | 0.02 | 72 | 1008.9 |
| 20260903182252 | 0 | 0.0 | 0.0 | 0.00 | 0.00 | 0.00 | |||
| 20260903181957 | 60 | 158 | 3.0 | 6.0 | 0.00 | 0.00 | 0.02 | 74 | 1008.7 |
| 20260903181752 | 0 | 0.0 | 0.0 | 0.00 | 0.00 | 0.00 | |||
| 20260903181459 | 59 | 118 | 4.0 | 6.0 | 0.00 | 0.00 | 0.02 | 74 | 1008.7 |
| 20260903181252 | 0 | 0.0 | 0.0 | 0.00 | 0.00 | 0.00 | |||
| 20260903180959 | 58 | 170 | 3.0 | 7.0 | 0.00 | 0.00 | 0.02 | 77 | 1008.7 |
| 20260903180457 | 56 | 132 | 3.0 | 4.0 | 0.00 | 0.00 | 0.02 | 80 | 1008.9 |
| 20260903180250 | 0 | 0.0 | 0.0 | 0.00 | 0.00 | 0.00 | |||
| 20260903175958 | 56 | 122 | 4.0 | 6.0 | 0.00 | 0.00 | 0.02 | 80 | 1009.0 |
| 20260903175751 | 0 | 0.0 | 0.0 | 0.00 | 0.00 | 0.00 | |||
| 20260903175457 | 56 | 115 | 1.0 | 3.0 | 0.00 | 0.00 | 0.02 | 80 | 1008.9 |
| 20260903174957 | 56 | 128 | 2.0 | 3.0 | 0.00 | 0.00 | 0.02 | 81 | 1008.9 |
| 20260903174746 | 0 | 0.0 | 0.0 | 0.00 | 0.00 | 0.00 | |||
| 20260903174458 | 56 | 116 | 1.0 | 4.0 | 0.00 | 0.00 | 0.02 | 81 | 1008.8 |
| 20260903174246 | 0 | 0.0 | 0.0 | 0.00 | 0.00 | 0.00 | |||
| 20260903173957 | 55 | 128 | 3.0 | 5.0 | 0.00 | 0.00 | 0.02 | 82 | 1008.7 |
| 20260903173746 | 0 | 0.0 | 0.0 | 0.00 | 0.00 | 0.00 | |||
| 20260903173457 | 55 | 82 | 3.0 | 6.0 | 0.00 | 0.00 | 0.02 | 82 | 1008.8 |
| 20260903173247 | 0 | 0.0 | 0.0 | 0.00 | 0.00 | 0.00 | |||
| 20260903172957 | 55 | 104 | 6.0 | 8.0 | 0.00 | 0.00 | 0.02 | 82 | 1008.8 |
| 20260903172747 | 0 | 0.0 | 0.0 | 0.00 | 0.00 | 0.00 | |||
| 20260903172459 | 55 | 106 | 3.0 | 5.0 | 0.00 | 0.00 | 0.02 | 82 | 1008.7 |
| 20260903172247 | 0 | 0.0 | 0.0 | 0.00 | 0.00 | 0.00 | |||
| 20260903171957 | 55 | 123 | 3.0 | 7.0 | 0.00 | 0.00 | 0.02 | 83 | 1008.7 |
| 20260903171746 | 0 | 0.0 | 0.0 | 0.00 | 0.00 | 0.00 | |||
| 20260903171457 | 54 | 135 | 2.0 | 2.0 | 0.00 | 0.00 | 0.02 | 84 | 1008.7 |
| 20260903171247 | 0 | 0.0 | 0.0 | 0.00 | 0.00 | 0.00 | |||
| 20260903170958 | 54 | 102 | 4.0 | 6.0 | 0.00 | 0.00 | 0.02 | 85 | 1008.6 |
| 20260903170458 | 54 | 106 | 2.0 | 4.0 | 0.00 | 0.00 | 0.02 | 86 | 1008.6 |
| 20260903170247 | 0 | 0.0 | 0.0 | 0.00 | 0.00 | 0.00 | |||
| 20260903165957 | 54 | 114 | 3.0 | 4.0 | 0.00 | 0.00 | 0.02 | 86 | 1008.6 |
| 20260903165748 | 0 | 0.0 | 0.0 | 0.00 | 0.00 | 0.00 | |||
| 20260903165457 | 54 | 106 | 4.0 | 6.0 | 0.00 | 0.00 | 0.02 | 86 | 1008.6 |
| 20260903165245 | 0 | 0.0 | 0.0 | 0.00 | 0.00 | 0.00 | |||
| 20260903164958 | 54 | 109 | 4.0 | 8.0 | 0.00 | 0.00 | 0.02 | 87 | 1008.6 |
| 20260903164744 | 0 | 0.0 | 0.0 | 0.00 | 0.00 | 0.00 | |||
| 20260903164458 | 54 | 116 | 3.0 | 5.0 | 0.00 | 0.00 | 0.02 | 86 | 1008.6 |
| 20260903164245 | 0 | 0.0 | 0.0 | 0.00 | 0.00 | 0.00 | |||
| 20260903163957 | 54 | 120 | 4.0 | 7.0 | 0.00 | 0.00 | 0.02 | 86 | 1008.5 |
| 20260903163744 | 0 | 0.0 | 0.0 | 0.00 | 0.00 | 0.00 | |||
| 20260903163459 | 54 | 113 | 4.0 | 7.0 | 0.00 | 0.00 | 0.02 | 86 | 1008.5 |
| 20260903162957 | 54 | 117 | 4.0 | 6.0 | 0.00 | 0.00 | 0.02 | 86 | 1008.4 |
| 20260903162742 | 0 | 0.0 | 0.0 | 0.00 | 0.00 | 0.00 | |||
| 20260903162458 | 54 | 106 | 6.0 | 8.0 | 0.00 | 0.00 | 0.02 | 85 | 1008.3 |
| 20260903162241 | 0 | 0.0 | 0.0 | 0.00 | 0.00 | 0.00 | |||
| 20260903161958 | 54 | 120 | 3.0 | 5.0 | 0.00 | 0.00 | 0.02 | 86 | 1008.3 |
| 20260903161742 | 0 | 0.0 | 0.0 | 0.00 | 0.00 | 0.00 | |||
| 20260903161457 | 54 | 117 | 4.0 | 6.0 | 0.00 | 0.00 | 0.02 | 85 | 1008.3 |
| 20260903161242 | 0 | 0.0 | 0.0 | 0.00 | 0.00 | 0.00 | |||
| 20260903160959 | 54 | 119 | 4.0 | 8.0 | 0.00 | 0.00 | 0.02 | 85 | 1008.3 |
| 20260903160742 | 0 | 0.0 | 0.0 | 0.00 | 0.00 | 0.00 | |||
| 20260903160457 | 54 | 103 | 5.0 | 6.0 | 0.00 | 0.00 | 0.02 | 86 | 1008.1 |
| 20260903160243 | 0 | 0.0 | 0.0 | 0.00 | 0.00 | 0.00 | |||
| 20260903155957 | 53 | 118 | 3.0 | 6.0 | 0.00 | 0.00 | 0.02 | 88 | 1008.1 |
| 20260903155742 | 0 | 0.0 | 0.0 | 0.00 | 0.00 | 0.00 | |||
| 20260903155458 | 53 | 117 | 3.0 | 5.0 | 0.00 | 0.00 | 0.02 | 88 | 1008.1 |
| 20260903155242 | 0 | 0.0 | 0.0 | 0.00 | 0.00 | 0.00 | |||
| 20260903154957 | 53 | 119 | 4.0 | 6.0 | 0.00 | 0.00 | 0.02 | 89 | 1008.1 |
| 20260903154737 | 0 | 0.0 | 0.0 | 0.00 | 0.00 | 0.00 | |||
| 20260903154458 | 53 | 124 | 4.0 | 7.0 | 0.00 | 0.00 | 0.02 | 89 | 1008.1 |
| 20260903154236 | 0 | 0.0 | 0.0 | 0.00 | 0.00 | 0.00 | |||
| 20260903153957 | 53 | 117 | 4.0 | 6.0 | 0.00 | 0.00 | 0.02 | 89 | 1008.1 |
| 20260903153742 | 0 | 0.0 | 0.0 | 0.00 | 0.00 | 0.00 | |||
| 20260903153458 | 53 | 121 | 5.0 | 8.0 | 0.00 | 0.00 | 0.02 | 89 | 1008.0 |
| 20260903153243 | 0 | 0.0 | 0.0 | 0.00 | 0.00 | 0.00 | |||
| 20260903152957 | 53 | 134 | 4.0 | 7.0 | 0.00 | 0.00 | 0.02 | 89 | 1007.9 |
| 20260903152736 | 0 | 0.0 | 0.0 | 0.00 | 0.00 | 0.00 | |||
| 20260903152458 | 53 | 114 | 6.0 | 9.0 | 0.00 | 0.00 | 0.02 | 89 | 1007.9 |
| 20260903152236 | 0 | 0.0 | 0.0 | 0.00 | 0.00 | 0.00 | |||
| 20260903151958 | 53 | 121 | 5.0 | 6.0 | 0.00 | 0.00 | 0.02 | 90 | 1007.8 |
| 20260903151736 | 0 | 0.0 | 0.0 | 0.00 | 0.00 | 0.00 | |||
| 20260903151504 | 52 | 114 | 6.0 | 7.0 | 0.00 | 0.00 | 0.02 | 90 | 1007.8 |
| 20260903151237 | 0 | 0.0 | 0.0 | 0.00 | 0.00 | 0.00 | |||
| 20260903150958 | 52 | 116 | 6.0 | 7.0 | 0.00 | 0.00 | 0.02 | 91 | 1007.8 |
| 20260903150736 | 0 | 0.0 | 0.0 | 0.00 | 0.00 | 0.00 | |||
| 20260903150458 | 52 | 117 | 6.0 | 8.0 | 0.00 | 0.00 | 0.02 | 91 | 1007.8 |
| 20260903150236 | 0 | 0.0 | 0.0 | 0.00 | 0.00 | 0.00 | |||
| 20260903145959 | 52 | 110 | 7.0 | 10.0 | 0.00 | 0.00 | 0.02 | 91 | 1007.8 |
| 20260903145737 | 0 | 0.0 | 0.0 | 0.00 | 0.00 | 0.00 | |||
| 20260903145458 | 52 | 108 | 7.0 | 11.0 | 0.01 | 0.00 | 0.02 | 92 | 1007.7 |
| 20260903145237 | 0 | 0.0 | 0.0 | 0.00 | 0.00 | 0.00 | |||
| 20260903144957 | 52 | 121 | 6.0 | 8.0 | 0.01 | 0.00 | 0.02 | 93 | 1007.6 |
| 20260903144736 | 0 | 0.0 | 0.0 | 0.00 | 0.00 | 0.00 | |||
| 20260903144459 | 52 | 127 | 7.0 | 9.0 | 0.01 | 0.00 | 0.02 | 93 | 1007.6 |
| 20260903144232 | 0 | 0.0 | 0.0 | 0.00 | 0.00 | 0.00 | |||
| 20260903143957 | 52 | 122 | 6.0 | 7.0 | 0.01 | 0.00 | 0.02 | 94 | 1007.5 |
| 20260903143731 | 0 | 0.0 | 0.0 | 0.00 | 0.00 | 0.00 | |||
| 20260903143459 | 51 | 113 | 7.0 | 9.0 | 0.01 | 0.00 | 0.02 | 95 | 1007.4 |
| 20260903143232 | 0 | 0.0 | 0.0 | 0.00 | 0.00 | 0.00 | |||
| 20260903142959 | 51 | 123 | 6.0 | 8.0 | 0.01 | 0.00 | 0.02 | 95 | 1007.4 |
| 20260903142732 | 0 | 0.0 | 0.0 | 0.00 | 0.00 | 0.00 | |||
| 20260903142458 | 51 | 121 | 7.0 | 9.0 | 0.02 | 0.00 | 0.02 | 95 | 1007.4 |
| 20260903142231 | 0 | 0.0 | 0.0 | 0.00 | 0.00 | 0.00 | |||
| 20260903141957 | 51 | 116 | 7.0 | 9.0 | 0.02 | 0.00 | 0.02 | 95 | 1007.3 |
| 20260903141732 | 0 | 0.0 | 0.0 | 0.00 | 0.00 | 0.00 | |||
| 20260903141458 | 51 | 125 | 6.0 | 8.0 | 0.02 | 0.00 | 0.02 | 95 | 1007.3 |
| 20260903141233 | 0 | 0.0 | 0.0 | 0.00 | 0.00 | 0.00 | |||
| 20260903140957 | 51 | 129 | 6.0 | 8.0 | 0.02 | 0.00 | 0.02 | 95 | 1007.2 |
| 20260903140729 | 0 | 0.0 | 0.0 | 0.00 | 0.00 | 0.00 | |||
| 20260903140458 | 51 | 122 | 6.0 | 8.0 | 0.02 | 0.00 | 0.02 | 95 | 1007.2 |
| 20260903140229 | 0 | 0.0 | 0.0 | 0.00 | 0.00 | 0.00 | |||
| 20260903140001 | 51 | 119 | 6.0 | 9.0 | 0.02 | 0.00 | 0.02 | 95 | 1007.2 |
| 20260903135729 | 0 | 0.0 | 0.0 | 0.00 | 0.00 | 0.00 | |||
| 20260903135500 | 51 | 122 | 6.0 | 9.0 | 0.01 | 0.00 | 0.02 | 95 | 1007.2 |
| 20260903135230 | 0 | 0.0 | 0.0 | 0.00 | 0.00 | 0.00 | |||
| 20260903134958 | 51 | 128 | 6.0 | 8.0 | 0.01 | 0.00 | 0.02 | 94 | 1007.3 |
| 20260903134458 | 51 | 122 | 7.0 | 9.0 | 0.01 | 0.00 | 0.01 | 94 | 1007.2 |
| 20260903134230 | 0 | 0.0 | 0.0 | 0.00 | 0.00 | 0.00 | |||
| 20260903133957 | 51 | 128 | 6.0 | 9.0 | 0.01 | 0.00 | 0.01 | 93 | 1007.1 |
| 20260903133729 | 0 | 0.0 | 0.0 | 0.00 | 0.00 | 0.00 | |||
| 20260903133458 | 51 | 124 | 7.0 | 8.0 | 0.00 | 0.00 | 0.01 | 93 | 1007.1 |
| 20260903133230 | 0 | 0.0 | 0.0 | 0.00 | 0.00 | 0.00 | |||
| 20260903132958 | 52 | 125 | 6.0 | 8.0 | 0.00 | 0.00 | 0.01 | 92 | 1007.0 |
| 20260903132458 | 52 | 126 | 6.0 | 8.0 | 0.00 | 0.00 | 0.00 | 90 | 1006.9 |
| 20260903132230 | 0 | 0.0 | 0.0 | 0.00 | 0.00 | 0.00 | |||
| 20260903131958 | 52 | 127 | 6.0 | 9.0 | 0.00 | 0.00 | 0.00 | 90 | 1006.9 |
| 20260903131730 | 0 | 0.0 | 0.0 | 0.00 | 0.00 | 0.00 | |||
| 20260903131457 | 53 | 122 | 6.0 | 8.0 | 0.00 | 0.00 | 0.00 | 88 | 1006.9 |
| 20260903131230 | 0 | 0.0 | 0.0 | 0.00 | 0.00 | 0.00 | |||
| 20260903130958 | 53 | 128 | 8.0 | 9.0 | 0.00 | 0.00 | 0.00 | 87 | 1006.8 |
| 20260903130728 | 0 | 0.0 | 0.0 | 0.00 | 0.00 | 0.00 | |||
| 20260903130458 | 53 | 129 | 7.0 | 10.0 | 0.00 | 0.00 | 0.00 | 85 | 1006.8 |
| 20260903130227 | 0 | 0.0 | 0.0 | 0.00 | 0.00 | 0.00 | |||
| 20260903125958 | 53 | 128 | 6.0 | 8.0 | 0.00 | 0.00 | 0.00 | 85 | 1006.6 |
| 20260903125724 | 0 | 0.0 | 0.0 | 0.00 | 0.00 | 0.00 | |||
| 20260903125457 | 53 | 126 | 6.0 | 9.0 | 0.00 | 0.00 | 0.00 | 84 | 1006.4 |
| 20260903125224 | 0 | 0.0 | 0.0 | 0.00 | 0.00 | 0.00 | |||
| 20260903124958 | 53 | 125 | 6.0 | 9.0 | 0.00 | 0.00 | 0.00 | 84 | 1006.5 |
| 20260903124725 | 0 | 0.0 | 0.0 | 0.00 | 0.00 | 0.00 | |||
| 20260903124457 | 53 | 124 | 6.0 | 8.0 | 0.00 | 0.00 | 0.00 | 83 | 1006.4 |
| 20260903124227 | 0 | 0.0 | 0.0 | 0.00 | 0.00 | 0.00 | |||
| 20260903123958 | 53 | 127 | 6.0 | 12.0 | 0.00 | 0.00 | 0.00 | 83 | 1006.4 |
| 20260903123725 | 0 | 0.0 | 0.0 | 0.00 | 0.00 | 0.00 | |||
| 20260903123457 | 54 | 128 | 6.0 | 9.0 | 0.00 | 0.00 | 0.00 | 83 | 1006.4 |
| 20260903123225 | 0 | 0.0 | 0.0 | 0.00 | 0.00 | 0.00 | |||
| 20260903122957 | 54 | 117 | 7.0 | 9.0 | 0.00 | 0.00 | 0.00 | 83 | 1006.4 |
| 20260903122725 | 0 | 0.0 | 0.0 | 0.00 | 0.00 | 0.00 | |||
| 20260903122458 | 54 | 117 | 6.0 | 8.0 | 0.00 | 0.00 | 0.00 | 83 | 1006.4 |
| 20260903122225 | 0 | 0.0 | 0.0 | 0.00 | 0.00 | 0.00 | |||
| 20260903121957 | 54 | 116 | 7.0 | 9.0 | 0.00 | 0.00 | 0.00 | 83 | 1006.4 |
| 20260903121725 | 0 | 0.0 | 0.0 | 0.00 | 0.00 | 0.00 | |||
| 20260903121458 | 54 | 120 | 6.0 | 9.0 | 0.00 | 0.00 | 0.00 | 83 | 1006.1 |
| 20260903121225 | 0 | 0.0 | 0.0 | 0.00 | 0.00 | 0.00 | |||
| 20260903120957 | 54 | 120 | 6.0 | 8.0 | 0.00 | 0.00 | 0.00 | 83 | 1006.2 |
| 20260903120457 | 54 | 118 | 7.0 | 9.0 | 0.00 | 0.00 | 0.00 | 83 | 1006.2 |
| 20260903120223 | 0 | 0.0 | 0.0 | 0.00 | 0.00 | 0.00 | |||
| 20260903115958 | 54 | 121 | 7.0 | 9.0 | 0.00 | 0.00 | 0.00 | 83 | 1006.2 |
| 20260903115722 | 0 | 0.0 | 0.0 | 0.00 | 0.00 | 0.00 | |||
| 20260903115458 | 54 | 117 | 6.0 | 9.0 | 0.00 | 0.00 | 0.00 | 83 | 1006.2 |
| 20260903115222 | 0 | 0.0 | 0.0 | 0.00 | 0.00 | 0.00 | |||
| 20260903114957 | 54 | 122 | 5.0 | 8.0 | 0.00 | 0.00 | 0.00 | 83 | 1006.2 |
| 20260903114722 | 0 | 0.0 | 0.0 | 0.00 | 0.00 | 0.00 | |||
| 20260903114457 | 54 | 125 | 7.0 | 11.0 | 0.00 | 0.00 | 0.00 | 82 | 1006.2 |
| 20260903114222 | 0 | 0.0 | 0.0 | 0.00 | 0.00 | 0.00 | |||
| 20260903113957 | 54 | 121 | 7.0 | 10.0 | 0.00 | 0.00 | 0.00 | 83 | 1006.2 |
| 20260903113723 | 0 | 0.0 | 0.0 | 0.00 | 0.00 | 0.00 | |||
| 20260903113458 | 54 | 128 | 6.0 | 8.0 | 0.00 | 0.00 | 0.00 | 82 | 1006.2 |
| 20260903113223 | 0 | 0.0 | 0.0 | 0.00 | 0.00 | 0.00 | |||
| 20260903112957 | 54 | 123 | 7.0 | 9.0 | 0.00 | 0.00 | 0.00 | 82 | 1006.2 |
| 20260903112723 | 0 | 0.0 | 0.0 | 0.00 | 0.00 | 0.00 | |||
| 20260903112457 | 54 | 120 | 7.0 | 9.0 | 0.00 | 0.00 | 0.00 | 82 | 1006.2 |
| 20260903112223 | 0 | 0.0 | 0.0 | 0.00 | 0.00 | 0.00 | |||
| 20260903112003 | 54 | 116 | 6.0 | 11.0 | 0.00 | 0.00 | 0.00 | 82 | 1005.6 |
| 20260903111723 | 0 | 0.0 | 0.0 | 0.00 | 0.00 | 0.00 | |||
| 20260903111458 | 54 | 120 | 7.0 | 9.0 | 0.00 | 0.00 | 0.00 | 82 | 1005.5 |
| 20260903110957 | 54 | 116 | 8.0 | 9.0 | 0.00 | 0.00 | 0.00 | 82 | 1005.4 |
| 20260903110457 | 54 | 121 | 7.0 | 11.0 | 0.00 | 0.00 | 0.00 | 82 | 1005.4 |
| 20260903105957 | 54 | 118 | 7.0 | 9.0 | 0.00 | 0.00 | 0.00 | 82 | 1005.4 |
| 20260903105720 | 0 | 0.0 | 0.0 | 0.00 | 0.00 | 0.00 | |||
| 20260903105458 | 54 | 116 | 7.0 | 9.0 | 0.00 | 0.00 | 0.00 | 82 | 1005.4 |
| 20260903105221 | 0 | 0.0 | 0.0 | 0.00 | 0.00 | 0.00 | |||
| 20260903104957 | 54 | 112 | 8.0 | 10.0 | 0.00 | 0.00 | 0.00 | 82 | 1005.5 |
| 20260903104720 | 0 | 0.0 | 0.0 | 0.00 | 0.00 | 0.00 | |||
| 20260903104457 | 54 | 113 | 7.0 | 9.0 | 0.00 | 0.00 | 0.00 | 82 | 1005.5 |
| 20260903104221 | 0 | 0.0 | 0.0 | 0.00 | 0.00 | 0.00 | |||
| 20260903103957 | 54 | 116 | 7.0 | 9.0 | 0.00 | 0.00 | 0.00 | 82 | 1005.5 |
| 20260903103458 | 54 | 113 | 7.0 | 9.0 | 0.00 | 0.00 | 0.00 | 82 | 1005.5 |
| 20260903103221 | 0 | 0.0 | 0.0 | 0.00 | 0.00 | 0.00 | |||
| 20260903102957 | 54 | 123 | 7.0 | 9.0 | 0.00 | 0.00 | 0.00 | 82 | 1005.4 |
| 20260903102721 | 0 | 0.0 | 0.0 | 0.00 | 0.00 | 0.00 | |||
| 20260903102457 | 54 | 126 | 7.0 | 9.0 | 0.00 | 0.00 | 0.00 | 82 | 1005.3 |
| 20260903102221 | 0 | 0.0 | 0.0 | 0.00 | 0.00 | 0.00 | |||
| 20260903101957 | 54 | 116 | 7.0 | 9.0 | 0.00 | 0.00 | 0.00 | 82 | 1005.2 |
| 20260903101721 | 0 | 0.0 | 0.0 | 0.00 | 0.00 | 0.00 | |||
| 20260903101500 | 54 | 120 | 7.0 | 9.0 | 0.00 | 0.00 | 0.00 | 82 | 1005.3 |
| 20260903101222 | 0 | 0.0 | 0.0 | 0.00 | 0.00 | 0.00 | |||
| 20260903100957 | 54 | 119 | 7.0 | 10.0 | 0.00 | 0.00 | 0.00 | 82 | 1005.4 |
| 20260903100718 | 0 | 0.0 | 0.0 | 0.00 | 0.00 | 0.00 | |||
| 20260903100459 | 54 | 115 | 9.0 | 11.0 | 0.00 | 0.00 | 0.00 | 82 | 1005.5 |
| 20260903100218 | 0 | 0.0 | 0.0 | 0.00 | 0.00 | 0.00 | |||
| 20260903095957 | 54 | 116 | 7.0 | 10.0 | 0.00 | 0.00 | 0.00 | 82 | 1005.4 |
| 20260903095719 | 0 | 0.0 | 0.0 | 0.00 | 0.00 | 0.00 | |||
| 20260903095457 | 54 | 116 | 8.0 | 11.0 | 0.00 | 0.00 | 0.00 | 82 | 1005.5 |
| 20260903094957 | 54 | 116 | 9.0 | 12.0 | 0.00 | 0.00 | 0.00 | 82 | 1005.4 |
| 20260903094724 | 0 | 0.0 | 0.0 | 0.00 | 0.00 | 0.00 | |||
| 20260903094457 | 54 | 117 | 7.0 | 12.0 | 0.00 | 0.00 | 0.00 | 82 | 1005.4 |
| 20260903094221 | 0 | 0.0 | 0.0 | 0.00 | 0.00 | 0.00 | |||
| 20260903093957 | 54 | 114 | 8.0 | 11.0 | 0.00 | 0.00 | 0.00 | 82 | 1005.4 |
| 20260903093719 | 0 | 0.0 | 0.0 | 0.00 | 0.00 | 0.00 | |||
| 20260903093457 | 54 | 113 | 9.0 | 12.0 | 0.00 | 0.00 | 0.00 | 82 | 1005.4 |
| 20260903093219 | 0 | 0.0 | 0.0 | 0.00 | 0.00 | 0.00 | |||
| 20260903093000 | 54 | 117 | 8.0 | 13.0 | 0.00 | 0.00 | 0.00 | 82 | 1005.2 |
| 20260903092719 | 0 | 0.0 | 0.0 | 0.00 | 0.00 | 0.00 | |||
| 20260903092457 | 54 | 106 | 10.0 | 15.0 | 0.00 | 0.00 | 0.00 | 83 | 1005.3 |
| 20260903092219 | 0 | 0.0 | 0.0 | 0.00 | 0.00 | 0.00 | |||
| 20260903091957 | 54 | 115 | 7.0 | 9.0 | 0.00 | 0.00 | 0.00 | 83 | 1005.3 |
| 20260903091719 | 0 | 0.0 | 0.0 | 0.00 | 0.00 | 0.00 | |||
| 20260903091457 | 54 | 110 | 8.0 | 9.0 | 0.00 | 0.00 | 0.00 | 83 | 1005.2 |
| 20260903091220 | 0 | 0.0 | 0.0 | 0.00 | 0.00 | 0.00 | |||
| 20260903090957 | 54 | 107 | 7.0 | 10.0 | 0.00 | 0.00 | 0.00 | 84 | 1005.2 |
| 20260903090719 | 0 | 0.0 | 0.0 | 0.00 | 0.00 | 0.00 | |||
| 20260903090457 | 54 | 114 | 7.0 | 9.0 | 0.00 | 0.00 | 0.00 | 84 | 1005.2 |
| 20260903090219 | 0 | 0.0 | 0.0 | 0.00 | 0.00 | 0.00 | |||
| 20260903085958 | 54 | 111 | 7.0 | 9.0 | 0.00 | 0.00 | 0.00 | 85 | 1005.2 |
| 20260903085717 | 0 | 0.0 | 0.0 | 0.00 | 0.00 | 0.00 | |||
| 20260903085457 | 54 | 113 | 7.0 | 9.0 | 0.00 | 0.00 | 0.00 | 84 | 1005.3 |
| 20260903085216 | 0 | 0.0 | 0.0 | 0.00 | 0.00 | 0.00 | |||
| 20260903084958 | 54 | 121 | 6.0 | 8.0 | 0.00 | 0.00 | 0.00 | 85 | 1005.3 |
| 20260903084716 | 0 | 0.0 | 0.0 | 0.00 | 0.00 | 0.00 | |||
| 20260903084457 | 54 | 116 | 7.0 | 9.0 | 0.00 | 0.00 | 0.00 | 85 | 1005.3 |
| 20260903084217 | 0 | 0.0 | 0.0 | 0.00 | 0.00 | 0.00 | |||
| 20260903083957 | 54 | 115 | 7.0 | 11.0 | 0.00 | 0.00 | 0.00 | 85 | 1005.3 |
| 20260903083716 | 0 | 0.0 | 0.0 | 0.00 | 0.00 | 0.00 | |||
| 20260903083457 | 54 | 117 | 6.0 | 8.0 | 0.00 | 0.00 | 0.00 | 85 | 1005.3 |
| 20260903083217 | 0 | 0.0 | 0.0 | 0.00 | 0.00 | 0.00 | |||
| 20260903082957 | 54 | 125 | 6.0 | 9.0 | 0.00 | 0.00 | 0.00 | 85 | 1005.4 |
| 20260903082717 | 0 | 0.0 | 0.0 | 0.00 | 0.00 | 0.00 | |||
| 20260903082457 | 54 | 117 | 5.0 | 8.0 | 0.00 | 0.00 | 0.00 | 85 | 1005.5 |
| 20260903082216 | 0 | 0.0 | 0.0 | 0.00 | 0.00 | 0.00 | |||
| 20260903081957 | 54 | 119 | 6.0 | 10.0 | 0.00 | 0.00 | 0.00 | 84 | 1005.5 |
| 20260903081716 | 0 | 0.0 | 0.0 | 0.00 | 0.00 | 0.00 | |||
| 20260903081457 | 54 | 112 | 6.0 | 9.0 | 0.00 | 0.00 | 0.00 | 84 | 1005.4 |
| 20260903081217 | 0 | 0.0 | 0.0 | 0.00 | 0.00 | 0.00 | |||
| 20260903080957 | 54 | 112 | 8.0 | 9.0 | 0.00 | 0.00 | 0.00 | 85 | 1005.4 |
| 20260903080717 | 0 | 0.0 | 0.0 | 0.00 | 0.00 | 0.00 | |||
| 20260903080459 | 54 | 114 | 6.0 | 9.0 | 0.00 | 0.00 | 0.00 | 85 | 1005.4 |
| 20260903075957 | 54 | 116 | 6.0 | 9.0 | 0.00 | 0.00 | 0.00 | 85 | 1005.4 |
| 20260903075715 | 0 | 0.0 | 0.0 | 0.00 | 0.00 | 0.00 | |||
| 20260903075458 | 54 | 113 | 5.0 | 8.0 | 0.00 | 0.00 | 0.00 | 85 | 1005.5 |
| 20260903075211 | 0 | 0.0 | 0.0 | 0.00 | 0.00 | 0.00 | |||
| 20260903074958 | 54 | 115 | 6.0 | 11.0 | 0.00 | 0.00 | 0.00 | 85 | 1005.5 |
| 20260903074711 | 0 | 0.0 | 0.0 | 0.00 | 0.00 | 0.00 | |||
| 20260903074458 | 54 | 113 | 7.0 | 9.0 | 0.00 | 0.00 | 0.00 | 85 | 1005.4 |
| 20260903073957 | 54 | 118 | 6.0 | 9.0 | 0.00 | 0.00 | 0.00 | 85 | 1005.4 |
| 20260903073711 | 0 | 0.0 | 0.0 | 0.00 | 0.00 | 0.00 | |||
| 20260903073457 | 54 | 108 | 8.0 | 10.0 | 0.00 | 0.00 | 0.00 | 86 | 1005.3 |
| 20260903072957 | 54 | 114 | 7.0 | 10.0 | 0.00 | 0.00 | 0.00 | 87 | 1005.4 |
| 20260903072712 | 0 | 0.0 | 0.0 | 0.00 | 0.00 | 0.00 | |||
| 20260903072457 | 54 | 114 | 6.0 | 9.0 | 0.00 | 0.00 | 0.00 | 87 | 1005.4 |
| 20260903072211 | 0 | 0.0 | 0.0 | 0.00 | 0.00 | 0.00 | |||
| 20260903071957 | 54 | 117 | 5.0 | 8.0 | 0.00 | 0.00 | 0.00 | 87 | 1005.4 |
| 20260903071712 | 0 | 0.0 | 0.0 | 0.00 | 0.00 | 0.00 | |||
| 20260903071459 | 54 | 121 | 6.0 | 9.0 | 0.00 | 0.00 | 0.00 | 86 | 1005.3 |
| 20260903070957 | 54 | 123 | 6.0 | 9.0 | 0.00 | 0.00 | 0.00 | 86 | 1005.3 |
| 20260903070712 | 0 | 0.0 | 0.0 | 0.00 | 0.00 | 0.00 | |||
| 20260903070458 | 54 | 113 | 6.0 | 8.0 | 0.00 | 0.00 | 0.00 | 86 | 1005.2 |
| 20260903070212 | 0 | 0.0 | 0.0 | 0.00 | 0.00 | 0.00 | |||
| 20260903065957 | 54 | 116 | 6.0 | 9.0 | 0.00 | 0.00 | 0.06 | 85 | 1005.2 |
| 20260903065709 | 0 | 0.0 | 0.0 | 0.00 | 0.00 | 0.00 | |||
| 20260903065458 | 54 | 102 | 7.0 | 10.0 | 0.00 | 0.00 | 0.06 | 85 | 1005.2 |
| 20260903065209 | 0 | 0.0 | 0.0 | 0.00 | 0.00 | 0.00 | |||
| 20260903064958 | 54 | 114 | 6.0 | 8.0 | 0.00 | 0.00 | 0.06 | 86 | 1005.3 |
| 20260903064709 | 0 | 0.0 | 0.0 | 0.00 | 0.00 | 0.00 | |||
| 20260903064457 | 54 | 115 | 6.0 | 7.0 | 0.00 | 0.00 | 0.06 | 86 | 1005.3 |
| 20260903064205 | 0 | 0.0 | 0.0 | 0.00 | 0.00 | 0.00 | |||
| 20260903063957 | 54 | 111 | 7.0 | 9.0 | 0.00 | 0.00 | 0.06 | 86 | 1005.2 |
| 20260903063704 | 0 | 0.0 | 0.0 | 0.00 | 0.00 | 0.00 | |||
| 20260903063457 | 54 | 109 | 7.0 | 9.0 | 0.00 | 0.00 | 0.06 | 86 | 1005.2 |
| 20260903063204 | 0 | 0.0 | 0.0 | 0.00 | 0.00 | 0.00 | |||
| 20260903062957 | 54 | 108 | 6.0 | 9.0 | 0.00 | 0.00 | 0.06 | 87 | 1005.3 |
| 20260903062704 | 0 | 0.0 | 0.0 | 0.00 | 0.00 | 0.00 | |||
| 20260903062457 | 54 | 112 | 6.0 | 9.0 | 0.00 | 0.00 | 0.06 | 87 | 1005.3 |
| 20260903062205 | 0 | 0.0 | 0.0 | 0.00 | 0.00 | 0.00 | |||
| 20260903061957 | 54 | 117 | 5.0 | 7.0 | 0.00 | 0.00 | 0.06 | 88 | 1005.4 |
| 20260903061458 | 54 | 120 | 5.0 | 7.0 | 0.00 | 0.00 | 0.06 | 89 | 1005.4 |
| 20260903061205 | 0 | 0.0 | 0.0 | 0.00 | 0.00 | 0.00 | |||
| 20260903060959 | 54 | 115 | 6.0 | 9.0 | 0.00 | 0.00 | 0.06 | 89 | 1005.3 |
| 20260903060704 | 0 | 0.0 | 0.0 | 0.00 | 0.00 | 0.00 | |||
| 20260903060458 | 54 | 117 | 6.0 | 8.0 | 0.00 | 0.00 | 0.06 | 89 | 1005.3 |
| 20260903060205 | 0 | 0.0 | 0.0 | 0.00 | 0.00 | 0.00 | |||
| 20260903055957 | 54 | 120 | 6.0 | 8.0 | 0.00 | 0.00 | 0.06 | 89 | 1005.3 |
| 20260903055705 | 0 | 0.0 | 0.0 | 0.00 | 0.00 | 0.00 | |||
| 20260903055458 | 54 | 108 | 6.0 | 9.0 | 0.00 | 0.00 | 0.06 | 89 | 1005.4 |
| 20260903055000 | 54 | 113 | 6.0 | 8.0 | 0.00 | 0.00 | 0.06 | 89 | 1005.4 |
| 20260903054702 | 0 | 0.0 | 0.0 | 0.00 | 0.00 | 0.00 | |||
| 20260903054458 | 54 | 113 | 6.0 | 8.0 | 0.00 | 0.00 | 0.06 | 89 | 1005.4 |
| 20260903053957 | 54 | 110 | 7.0 | 10.0 | 0.00 | 0.00 | 0.06 | 89 | 1005.4 |
| 20260903053659 | 0 | 0.0 | 0.0 | 0.00 | 0.00 | 0.00 | |||
| 20260903053457 | 54 | 120 | 7.0 | 9.0 | 0.00 | 0.00 | 0.06 | 90 | 1005.4 |
| 20260903053200 | 0 | 0.0 | 0.0 | 0.00 | 0.00 | 0.00 | |||
| 20260903052957 | 54 | 112 | 6.0 | 7.0 | 0.00 | 0.00 | 0.06 | 90 | 1005.4 |
| 20260903052700 | 0 | 0.0 | 0.0 | 0.00 | 0.00 | 0.00 | |||
| 20260903052501 | 53 | 114 | 6.0 | 8.0 | 0.00 | 0.00 | 0.06 | 90 | 1005.4 |
| 20260903052159 | 0 | 0.0 | 0.0 | 0.00 | 0.00 | 0.00 | |||
| 20260903051958 | 53 | 126 | 5.0 | 8.0 | 0.00 | 0.00 | 0.06 | 90 | 1005.3 |
| 20260903051700 | 0 | 0.0 | 0.0 | 0.00 | 0.00 | 0.00 | |||
| 20260903051458 | 53 | 114 | 6.0 | 8.0 | 0.00 | 0.00 | 0.06 | 91 | 1005.2 |
| 20260903051200 | 0 | 0.0 | 0.0 | 0.00 | 0.00 | 0.00 | |||
| 20260903050957 | 53 | 117 | 6.0 | 7.0 | 0.00 | 0.00 | 0.06 | 91 | 1005.2 |
| 20260903050701 | 0 | 0.0 | 0.0 | 0.00 | 0.00 | 0.00 | |||
| 20260903050457 | 53 | 122 | 6.0 | 7.0 | 0.00 | 0.00 | 0.06 | 91 | 1005.1 |
| 20260903050200 | 0 | 0.0 | 0.0 | 0.00 | 0.00 | 0.00 | |||
| 20260903045957 | 53 | 116 | 5.0 | 7.0 | 0.00 | 0.00 | 0.06 | 90 | 1005.0 |
| 20260903045700 | 0 | 0.0 | 0.0 | 0.00 | 0.00 | 0.00 | |||
| 20260903045458 | 53 | 115 | 7.0 | 10.0 | 0.00 | 0.00 | 0.06 | 91 | 1005.0 |
| 20260903045200 | 0 | 0.0 | 0.0 | 0.00 | 0.00 | 0.00 | |||
| 20260903044958 | 53 | 117 | 5.0 | 8.0 | 0.00 | 0.00 | 0.06 | 90 | 1005.1 |
| 20260903044657 | 0 | 0.0 | 0.0 | 0.00 | 0.00 | 0.00 | |||
| 20260903044458 | 53 | 121 | 6.0 | 7.0 | 0.00 | 0.00 | 0.06 | 90 | 1005.0 |
| 20260903044157 | 0 | 0.0 | 0.0 | 0.00 | 0.00 | 0.00 | |||
| 20260903043958 | 53 | 122 | 7.0 | 9.0 | 0.00 | 0.00 | 0.06 | 90 | 1005.0 |
| 20260903043658 | 0 | 0.0 | 0.0 | 0.00 | 0.00 | 0.00 | |||
| 20260903043458 | 53 | 123 | 6.0 | 8.0 | 0.00 | 0.00 | 0.06 | 90 | 1004.9 |
| 20260903043157 | 0 | 0.0 | 0.0 | 0.00 | 0.00 | 0.00 | |||
| 20260903042957 | 53 | 110 | 7.0 | 9.0 | 0.00 | 0.00 | 0.06 | 90 | 1004.8 |
| 20260903042658 | 0 | 0.0 | 0.0 | 0.00 | 0.00 | 0.00 | |||
| 20260903042458 | 53 | 104 | 7.0 | 9.0 | 0.00 | 0.00 | 0.06 | 90 | 1004.8 |
| 20260903042157 | 0 | 0.0 | 0.0 | 0.00 | 0.00 | 0.00 | |||
| 20260903041957 | 54 | 110 | 5.0 | 6.0 | 0.00 | 0.00 | 0.06 | 89 | 1004.9 |
| 20260903041658 | 0 | 0.0 | 0.0 | 0.00 | 0.00 | 0.00 | |||
| 20260903041458 | 54 | 111 | 6.0 | 7.0 | 0.00 | 0.00 | 0.06 | 89 | 1004.8 |
| 20260903041157 | 0 | 0.0 | 0.0 | 0.00 | 0.00 | 0.00 | |||
| 20260903040958 | 54 | 117 | 5.0 | 8.0 | 0.00 | 0.00 | 0.06 | 89 | 1004.7 |
| 20260903040457 | 54 | 112 | 6.0 | 8.0 | 0.00 | 0.00 | 0.06 | 88 | 1004.7 |
| 20260903040157 | 0 | 0.0 | 0.0 | 0.00 | 0.00 | 0.00 | |||
| 20260903035958 | 54 | 110 | 6.0 | 8.0 | 0.00 | 0.00 | 0.06 | 89 | 1004.6 |
| 20260903035658 | 0 | 0.0 | 0.0 | 0.00 | 0.00 | 0.00 | |||
| 20260903035457 | 54 | 111 | 6.0 | 9.0 | 0.00 | 0.00 | 0.06 | 89 | 1004.4 |
| 20260903035158 | 0 | 0.0 | 0.0 | 0.00 | 0.00 | 0.00 | |||
| 20260903034957 | 54 | 114 | 5.0 | 7.0 | 0.00 | 0.00 | 0.06 | 89 | 1004.3 |
| 20260903034700 | 0 | 0.0 | 0.0 | 0.00 | 0.00 | 0.00 | |||
| 20260903034458 | 54 | 120 | 4.0 | 6.0 | 0.00 | 0.00 | 0.06 | 89 | 1004.3 |
| 20260903034156 | 0 | 0.0 | 0.0 | 0.00 | 0.00 | 0.00 | |||
| 20260903033957 | 54 | 115 | 4.0 | 6.0 | 0.00 | 0.00 | 0.06 | 89 | 1004.2 |
| 20260903033656 | 0 | 0.0 | 0.0 | 0.00 | 0.00 | 0.00 | |||
| 20260903033457 | 54 | 116 | 5.0 | 7.0 | 0.00 | 0.00 | 0.06 | 88 | 1004.2 |
| 20260903033156 | 0 | 0.0 | 0.0 | 0.00 | 0.00 | 0.00 | |||
| 20260903033003 | 54 | 111 | 6.0 | 8.0 | 0.00 | 0.00 | 0.06 | 88 | 1004.1 |
| 20260903032655 | 0 | 0.0 | 0.0 | 0.00 | 0.00 | 0.00 | |||
| 20260903032457 | 55 | 120 | 6.0 | 8.0 | 0.00 | 0.00 | 0.06 | 88 | 1003.9 |
| 20260903032200 | 0 | 0.0 | 0.0 | 0.00 | 0.00 | 0.00 | |||
| 20260903031957 | 55 | 120 | 6.0 | 8.0 | 0.00 | 0.00 | 0.06 | 87 | 1004.0 |
| 20260903031656 | 0 | 0.0 | 0.0 | 0.00 | 0.00 | 0.00 | |||
| 20260903031457 | 55 | 118 | 5.0 | 7.0 | 0.00 | 0.00 | 0.06 | 87 | 1003.9 |
| 20260903030958 | 55 | 129 | 6.0 | 7.0 | 0.00 | 0.00 | 0.06 | 87 | 1003.7 |
| 20260903030656 | 0 | 0.0 | 0.0 | 0.00 | 0.00 | 0.00 | |||
| 20260903030457 | 55 | 123 | 5.0 | 8.0 | 0.00 | 0.00 | 0.06 | 87 | 1003.6 |
| 20260903025957 | 55 | 126 | 5.0 | 6.0 | 0.00 | 0.00 | 0.06 | 86 | 1003.4 |
| 20260903025459 | 55 | 125 | 8.0 | 11.0 | 0.00 | 0.00 | 0.06 | 86 | 1003.3 |
| 20260903025156 | 0 | 0.0 | 0.0 | 0.00 | 0.00 | 0.00 | |||
| 20260903024958 | 56 | 127 | 7.0 | 9.0 | 0.00 | 0.00 | 0.06 | 87 | 1003.1 |
| 20260903024653 | 0 | 0.0 | 0.0 | 0.00 | 0.00 | 0.00 | |||
| 20260903024457 | 56 | 132 | 6.0 | 7.0 | 0.00 | 0.00 | 0.06 | 87 | 1002.8 |
| 20260903024153 | 0 | 0.0 | 0.0 | 0.00 | 0.00 | 0.00 | |||
| 20260903023957 | 56 | 125 | 8.0 | 10.0 | 0.00 | 0.00 | 0.06 | 87 | 1002.5 |
| 20260903023653 | 0 | 0.0 | 0.0 | 0.00 | 0.00 | 0.00 | |||
| 20260903023458 | 56 | 122 | 7.0 | 9.0 | 0.00 | 0.00 | 0.06 | 87 | 1002.4 |
| 20260903023154 | 0 | 0.0 | 0.0 | 0.00 | 0.00 | 0.00 | |||
| 20260903022959 | 56 | 124 | 6.0 | 8.0 | 0.00 | 0.00 | 0.06 | 87 | 1002.3 |
| 20260903022653 | 0 | 0.0 | 0.0 | 0.00 | 0.00 | 0.00 | |||
| 20260903022457 | 56 | 129 | 7.0 | 10.0 | 0.00 | 0.00 | 0.06 | 87 | 1002.1 |
| 20260903022154 | 0 | 0.0 | 0.0 | 0.00 | 0.00 | 0.00 | |||
| 20260903021957 | 56 | 128 | 8.0 | 11.0 | 0.00 | 0.00 | 0.06 | 88 | 1002.0 |
| 20260903021653 | 0 | 0.0 | 0.0 | 0.00 | 0.00 | 0.00 | |||
| 20260903021457 | 56 | 117 | 9.0 | 12.0 | 0.00 | 0.00 | 0.06 | 87 | 1001.9 |
| 20260903021153 | 0 | 0.0 | 0.0 | 0.00 | 0.00 | 0.00 | |||
| 20260903020958 | 56 | 121 | 8.0 | 9.0 | 0.00 | 0.00 | 0.06 | 87 | 1001.8 |
| 20260903020654 | 0 | 0.0 | 0.0 | 0.00 | 0.00 | 0.00 | |||
| 20260903020457 | 56 | 115 | 9.0 | 11.0 | 0.00 | 0.00 | 0.06 | 87 | 1001.7 |
| 20260903020154 | 0 | 0.0 | 0.0 | 0.00 | 0.00 | 0.00 | |||
| 20260903015957 | 56 | 116 | 8.0 | 11.0 | 0.00 | 0.00 | 0.06 | 87 | 1001.5 |
| 20260903015652 | 0 | 0.0 | 0.0 | 0.00 | 0.00 | 0.00 | |||
| 20260903015457 | 56 | 125 | 8.0 | 10.0 | 0.00 | 0.00 | 0.06 | 87 | 1001.6 |
| 20260903015152 | 0 | 0.0 | 0.0 | 0.00 | 0.00 | 0.00 | |||
| 20260903014957 | 56 | 125 | 8.0 | 10.0 | 0.00 | 0.00 | 0.06 | 87 | 1001.4 |
| 20260903014652 | 0 | 0.0 | 0.0 | 0.00 | 0.00 | 0.00 | |||
| 20260903014457 | 56 | 122 | 8.0 | 11.0 | 0.00 | 0.00 | 0.06 | 87 | 1001.4 |
| 20260903014156 | 0 | 0.0 | 0.0 | 0.00 | 0.00 | 0.00 | |||
| 20260903013958 | 55 | 125 | 8.0 | 11.0 | 0.00 | 0.00 | 0.06 | 87 | 1001.1 |
| 20260903013650 | 0 | 0.0 | 0.0 | 0.00 | 0.00 | 0.00 | |||
| 20260903013457 | 56 | 120 | 8.0 | 12.0 | 0.01 | 0.00 | 0.06 | 87 | 1001.1 |
| 20260903012957 | 55 | 130 | 9.0 | 13.0 | 0.01 | 0.00 | 0.06 | 88 | 1000.8 |
| 20260903012650 | 0 | 0.0 | 0.0 | 0.00 | 0.00 | 0.00 | |||
| 20260903012458 | 55 | 120 | 9.0 | 13.0 | 0.04 | 0.00 | 0.06 | 87 | 1000.7 |
| 20260903012151 | 0 | 0.0 | 0.0 | 0.00 | 0.00 | 0.00 | |||
| 20260903011957 | 55 | 114 | 8.0 | 11.0 | 0.04 | 0.00 | 0.08 | 88 | 1000.9 |
| 20260903011650 | 0 | 0.0 | 0.0 | 0.00 | 0.00 | 0.00 | |||
| 20260903011457 | 55 | 116 | 8.0 | 10.0 | 0.04 | 0.00 | 0.08 | 89 | 1000.8 |
| 20260903011150 | 0 | 0.0 | 0.0 | 0.00 | 0.00 | 0.00 | |||
| 20260903010958 | 55 | 116 | 8.0 | 12.0 | 0.05 | 0.00 | 0.08 | 89 | 1000.9 |
| 20260903010651 | 0 | 0.0 | 0.0 | 0.00 | 0.00 | 0.00 | |||
| 20260903010457 | 55 | 124 | 9.0 | 15.0 | 0.06 | 0.00 | 0.07 | 89 | 1000.9 |
| 20260903010150 | 0 | 0.0 | 0.0 | 0.00 | 0.00 | 0.00 | |||
| 20260903005957 | 54 | 123 | 8.0 | 9.0 | 0.06 | 0.00 | 0.08 | 90 | 1000.9 |
| 20260903005653 | 0 | 0.0 | 0.0 | 0.00 | 0.00 | 0.00 | |||
| 20260903005457 | 54 | 113 | 10.0 | 13.0 | 0.05 | 0.00 | 0.08 | 90 | 1001.0 |
| 20260903005150 | 0 | 0.0 | 0.0 | 0.00 | 0.00 | 0.00 | |||
| 20260903004957 | 54 | 119 | 8.0 | 13.0 | 0.06 | 0.00 | 0.07 | 92 | 1001.1 |
| 20260903004650 | 0 | 0.0 | 0.0 | 0.00 | 0.00 | 0.00 | |||
| 20260903004457 | 54 | 115 | 9.0 | 11.0 | 0.06 | 0.00 | 0.07 | 93 | 1001.1 |
| 20260903004155 | 0 | 0.0 | 0.0 | 0.00 | 0.00 | 0.00 | |||
| 20260903003957 | 54 | 116 | 9.0 | 12.0 | 0.05 | 0.00 | 0.07 | 93 | 1001.4 |
| 20260903003650 | 0 | 0.0 | 0.0 | 0.00 | 0.00 | 0.00 | |||
| 20260903003457 | 53 | 120 | 9.0 | 12.0 | 0.05 | 0.00 | 0.06 | 94 | 1001.3 |
| 20260903003152 | 0 | 0.0 | 0.0 | 0.00 | 0.00 | 0.00 | |||
| 20260903002958 | 53 | 118 | 10.0 | 15.0 | 0.07 | 0.00 | 0.06 | 94 | 1001.3 |
| 20260903002650 | 0 | 0.0 | 0.0 | 0.00 | 0.00 | 0.00 | |||
| 20260903002457 | 53 | 119 | 9.0 | 11.0 | 0.07 | 0.00 | 0.05 | 94 | 1001.4 |
| 20260903002000 | 53 | 118 | 9.0 | 12.0 | 0.05 | 0.00 | 0.06 | 94 | 1001.5 |
| 20260903001650 | 0 | 0.0 | 0.0 | 0.00 | 0.00 | 0.00 | |||
| 20260903001457 | 54 | 120 | 9.0 | 12.0 | 0.05 | 0.00 | 0.05 | 93 | 1001.4 |
| 20260903001155 | 0 | 0.0 | 0.0 | 0.00 | 0.00 | 0.00 | |||
| 20260903000957 | 54 | 116 | 9.0 | 11.0 | 0.05 | 0.00 | 0.05 | 93 | 1001.4 |
| 20260903000457 | 54 | 116 | 11.0 | 15.0 | 0.03 | 0.00 | 0.03 | 92 | 1001.3 |
| 20260902235957 | 54 | 119 | 8.0 | 10.0 | 0.03 | 0.00 | 0.03 | 92 | 1001.4 |
| 20260902235655 | 0 | 0.0 | 0.0 | 0.00 | 0.00 | 0.00 | |||
| 20260902235458 | 54 | 116 | 9.0 | 11.0 | 0.02 | 0.00 | 0.03 | 92 | 1001.5 |
| 20260902235155 | 0 | 0.0 | 0.0 | 0.00 | 0.00 | 0.00 | |||
| 20260902234959 | 55 | 121 | 8.0 | 13.0 | 0.02 | 0.00 | 0.02 | 91 | 1001.4 |
| 20260902234647 | 0 | 0.0 | 0.0 | 0.00 | 0.00 | 0.00 | |||
| 20260902234457 | 55 | 126 | 9.0 | 11.0 | 0.01 | 0.00 | 0.02 | 89 | 1001.5 |
| 20260902234148 | 0 | 0.0 | 0.0 | 0.00 | 0.00 | 0.00 | |||
| 20260902233957 | 55 | 127 | 8.0 | 12.0 | 0.01 | 0.00 | 0.01 | 88 | 1001.7 |
| 20260902233647 | 0 | 0.0 | 0.0 | 0.00 | 0.00 | 0.00 | |||
| 20260902233457 | 56 | 121 | 8.0 | 9.0 | 0.01 | 0.00 | 0.01 | 86 | 1001.6 |